Wind_Speed
14 14 15 15 15 16 16 16 16 17 17 17 18 18 19 19 20 20 20 21 22 21 20 20 18 17 17 15 14 13 12 12 13 13 14 16 16 15 16 16 17 17 17
14 14 15 15 15 15 15 15 15 16 17 17 18 18 19 19 21 22 21 21 23 23 22 21 19 19 19 17 16 14 13 13 13 13 14 16 17 16 16 17 18 18 17
14 14 15 15 15 15 14 14 14 15 16 16 17 18 19 19 21 22 22 22 23 24 23 22 21 20 21 19 18 17 15 15 14 13 14 16 17 18 18 18 18 18 17
14 15 15 16 16 15 15 14 14 14 14 15 16 17 18 19 20 22 23 23 23 24 24 23 23 22 22 21 20 19 17 16 16 15 15 15 16 17 18 19 18 17 17
15 16 16 16 16 15 15 14 13 13 13 13 14 16 17 19 20 22 23 24 24 25 25 24 24 23 23 23 22 21 19 18 17 17 16 16 16 17 17 18 19 18 18
16 16 16 16 16 15 14 13 12 12 12 12 13 14 16 17 19 21 23 24 24 26 26 25 24 24 24 24 23 22 21 20 19 18 18 17 17 18 17 17 18 18 18
17 17 16 16 16 15 13 12 11 10 10 11 12 13 15 16 18 20 22 24 24 26 26 27 25 25 24 24 24 24 23 22 21 20 19 19 18 18 18 18 19 19 18
17 17 17 16 16 15 13 12 10 9 9 10 11 12 14 15 17 19 21 24 24 25 26 27 26 25 24 25 25 25 24 23 23 21 21 21 20 19 19 19 20 20 19
17 17 17 16 16 15 13 12 10 9 8 8 9 10 11 13 16 18 21 23 24 25 26 27 26 26 25 25 26 26 25 24 24 23 22 22 22 21 21 21 21 21 21
17 17 17 17 16 15 13 12 10 8 7 6 7 8 9 11 14 17 19 22 23 24 26 27 26 26 26 26 27 27 26 26 25 24 23 23 23 23 22 22 22 22 22
17 17 17 16 15 14 13 11 9 7 6 5 5 6 8 9 12 15 18 20 22 24 25 26 26 25 25 26 27 27 27 27 26 25 25 24 24 24 23 23 23 23 23
17 17 17 16 15 14 13 11 9 7 5 4 5 6 7 9 11 13 15 17 20 23 24 26 27 26 25 25 26 27 27 27 27 26 26 26 25 25 25 24 24 24 24
17 17 16 15 14 13 12 11 9 7 6 5 5 5 7 8 10 12 14 16 19 21 22 24 25 25 25 26 25 26 27 27 26 26 26 27 26 25 25 25 25 25 25
16 16 16 15 14 13 12 11 10 8 6 5 5 5 6 7 9 10 13 15 17 19 21 22 23 24 25 25 25 25 26 26 27 27 27 27 27 27 26 26 25 26 26
15 15 15 15 14 13 12 11 10 8 7 6 5 5 5 6 7 9 11 13 15 16 18 20 21 22 23 24 24 25 26 26 26 27 27 27 28 28 27 27 27 27 27
15 15 14 14 14 13 12 11 10 9 7 6 6 5 5 6 7 8 10 12 14 15 17 18 19 20 22 22 23 24 26 26 26 27 27 27 28 28 28 27 27 28 28
15 15 14 14 14 14 13 12 11 9 8 7 6 5 5 5 6 7 9 11 13 14 16 17 19 20 21 22 22 23 25 26 26 27 27 27 27 28 29 28 28 29 28
15 14 14 13 13 13 13 12 11 10 9 7 6 6 5 5 6 6 8 10 12 14 15 16 18 19 20 22 22 23 24 25 26 26 27 28 28 27 28 29 29 29 29
15 14 14 14 13 13 13 12 12 11 9 8 7 6 5 4 5 6 7 10 11 13 14 15 16 17 19 20 22 23 23 24 26 27 27 27 28 28 29 29 29 30 29
15 15 14 14 14 14 13 12 12 11 10 8 7 6 5 5 5 6 7 8 10 12 13 15 16 17 18 20 21 22 23 23 24 25 26 27 28 28 29 30 30 31 31
16 16 15 14 14 14 13 13 12 11 10 9 8 7 6 6 7 7 7 9 10 11 12 13 15 16 18 19 21 21 22 22 23 24 25 26 27 27 28 29 30 31 31
17 17 16 15 15 14 14 14 13 12 11 10 9 9 8 8 8 8 8 9 10 11 12 13 14 15 16 18 20 21 21 22 23 24 25 25 25 26 27 28 29 30 31
18 18 18 17 16 16 15 14 14 13 12 11 11 10 9 8 9 9 10 10 10 11 12 13 14 14 16 18 18 20 21 21 22 24 24 25 26 27 27 27 28 29 30
20 19 19 19 18 17 17 16 15 15 14 13 12 12 11 10 10 10 11 11 12 12 13 14 14 14 15 17 18 19 21 21 22 23 24 25 25 26 27 27 28 29 30
22 22 21 21 20 20 19 18 18 17 16 15 15 14 13 12 12 11 12 12 13 13 14 15 15 15 16 17 19 19 20 21 21 22 23 24 25 25 25 26 27 28 28
25 24 24 23 23 23 22 21 20 19 19 18 17 16 15 15 14 13 14 14 14 15 15 15 16 17 18 18 18 19 20 20 21 21 23 24 25 25 25 26 27 28 28
Wind_Direction
321 318 314 310 306 300 295 287 280 274 267 263 257 250 244 239 234 232 231 228 225 220 218 218 219 214 210 207 208 207 203 199 194 195 195 193 190 188 189 188 185 184 185
324 322 320 316 313 307 300 292 283 274 268 263 257 249 243 238 234 231 228 227 224 220 218 218 218 216 211 209 208 206 203 202 199 195 193 193 193 195 196 196 188 190 189
326 325 324 322 317 312 304 295 287 278 270 264 257 248 241 236 232 230 227 225 223 220 219 218 218 217 214 211 209 207 206 204 203 199 198 198 199 200 199 197 192 193 195
330 328 327 325 322 317 308 298 289 281 273 264 256 247 241 237 234 228 226 224 222 219 218 217 219 218 215 212 210 209 209 209 208 206 204 201 201 202 201 199 197 197 199
335 331 329 328 327 322 314 303 293 283 274 265 256 247 241 237 233 228 224 223 221 218 219 219 219 219 215 212 212 210 210 211 211 210 209 207 203 200 201 201 202 202 203
340 337 334 333 330 326 322 313 300 288 277 265 257 249 242 237 232 228 224 222 222 219 219 218 220 219 216 214 214 212 211 210 212 212 211 209 207 205 205 204 204 206 208
342 341 339 338 335 331 327 322 311 295 281 267 256 249 243 237 231 227 224 221 221 220 218 219 220 220 218 217 215 214 212 211 214 215 214 213 212 211 210 208 208 210 212
344 343 342 340 338 335 333 327 319 303 287 269 256 248 244 238 230 227 224 221 220 220 220 220 218 219 219 217 216 215 214 214 215 216 216 214 215 216 215 214 215 215 217
347 346 345 343 341 339 337 333 325 314 296 273 257 248 244 239 231 228 224 222 220 220 219 219 220 221 219 217 217 217 217 217 217 218 218 217 218 220 221 220 220 221 221
348 348 346 345 344 343 341 338 331 322 307 281 260 249 244 238 232 229 227 224 222 221 219 219 220 220 219 218 218 217 218 220 220 221 222 221 221 222 224 224 225 226 227
349 349 348 347 347 346 345 343 339 332 318 292 269 255 246 241 234 230 227 225 222 221 221 219 218 219 219 219 219 218 219 221 222 223 224 224 225 226 226 228 229 230 231
349 350 350 349 349 349 350 350 348 343 331 307 283 264 252 245 238 230 226 226 223 221 219 218 219 219 221 220 220 220 220 223 223 224 225 226 228 229 229 231 232 232 232
348 350 350 350 351 351 353 352 350 347 336 316 295 276 262 251 243 234 229 227 223 219 220 221 222 222 223 222 223 222 222 223 225 226 228 227 228 230 231 233 234 234 235
347 350 351 352 351 352 352 352 349 343 335 322 306 287 268 254 244 237 232 228 223 220 221 222 222 221 223 224 225 224 224 224 227 228 229 229 229 231 234 237 238 239 239
345 349 352 353 352 353 353 351 349 345 337 327 315 298 276 257 245 237 232 229 224 222 224 224 224 224 224 226 226 227 226 226 227 229 230 231 233 234 237 240 242 243 243
341 345 348 352 353 353 354 352 348 343 336 329 318 302 281 261 247 238 231 229 225 224 225 226 226 225 226 226 228 228 226 226 228 230 232 234 237 238 239 241 243 243 245
335 340 343 346 349 351 350 348 347 343 337 329 319 309 291 267 249 244 230 226 227 227 227 228 227 226 225 225 227 229 228 228 230 232 234 236 238 238 239 241 243 244 247
330 333 336 339 343 345 347 346 344 340 337 334 327 317 301 279 257 250 234 229 229 228 230 231 230 228 227 228 229 229 229 231 232 235 236 238 239 239 240 242 244 245 248
324 326 329 332 336 340 342 343 344 341 336 332 327 322 306 285 265 260 241 235 232 230 230 232 231 231 230 231 231 232 232 233 235 237 238 239 240 242 242 242 245 246 248
317 319 321 325 328 332 335 337 338 340 338 333 324 316 301 283 270 265 250 242 237 235 233 234 234 234 233 233 233 234 235 236 237 239 240 242 243 245 244 245 247 248 250
310 312 313 316 320 324 327 328 328 330 331 330 324 313 302 288 275 271 260 249 242 239 239 239 236 236 234 235 236 236 238 239 241 241 243 244 245 248 248 248 249 251 252
303 306 308 309 311 314 317 319 319 320 320 319 316 314 304 292 281 273 265 255 246 241 241 239 238 238 236 237 238 238 240 240 243 243 244 245 248 248 250 251 252 253 254
298 300 301 302 304 306 307 309 310 309 309 308 307 304 303 294 285 276 266 258 251 245 244 243 239 241 241 239 240 241 242 244 247 247 247 249 250 251 251 252 253 254 257
295 295 296 297 298 299 300 299 300 301 300 300 299 296 294 290 286 279 269 262 257 251 248 247 243 244 245 243 243 245 246 246 247 247 249 251 251 254 254 256 257 258 258
291 291 292 292 292 292 293 293 292 292 292 292 290 290 287 284 283 279 272 266 261 257 254 252 250 249 249 248 247 247 249 250 252 250 250 252 254 256 257 258 258 259 261
288 288 288 287 287 287 287 286 286 286 285 286 284 284 283 280 277 275 272 268 264 261 258 256 255 255 254 254 253 252 253 254 255 255 255 256 258 259 260 260 261 262 262
Height
5838 5836 5834 5832 5830 5828 5826 5825 5824 5823 5823 5824 5824 5825 5827 5829 5830 5833 5835 5838 5840 5843 5846 5848 5851 5853 5855 5857 5859 5861 5862 5864 5865 5866 5867 5869 5873 5875 5878 5880 5882 5885 5887
5836 5834 5831 5829 5826 5824 5822 5820 5820 5819 5819 5819 5820 5821 5822 5824 5826 5828 5831 5834 5837 5839 5842 5845 5848 5850 5853 5855 5857 5860 5861 5863 5864 5866 5866 5868 5872 5875 5877 5880 5882 5884 5887
5833 5831 5828 5825 5823 5820 5818 5817 5815 5815 5815 5815 5815 5816 5818 5820 5822 5824 5827 5830 5833 5836 5838 5841 5845 5847 5850 5853 5855 5858 5860 5862 5863 5865 5867 5869 5871 5874 5877 5879 5881 5884 5886
5831 5828 5826 5823 5820 5817 5815 5813 5811 5811 5810 5810 5811 5812 5814 5815 5817 5820 5823 5826 5829 5832 5835 5838 5841 5844 5847 5850 5853 5855 5858 5860 5862 5864 5866 5868 5871 5873 5875 5878 5880 5883 5885
5829 5826 5823 5820 5817 5814 5811 5809 5807 5807 5806 5806 5807 5808 5809 5811 5813 5815 5818 5822 5825 5828 5831 5834 5837 5841 5844 5847 5850 5853 5855 5858 5861 5863 5865 5867 5869 5872 5874 5876 5879 5881 5884
5827 5823 5820 5817 5814 5811 5808 5806 5804 5803 5802 5802 5803 5804 5805 5807 5809 5811 5814 5817 5820 5824 5827 5831 5834 5837 5840 5843 5847 5850 5853 5856 5858 5861 5863 5865 5868 5870 5873 5875 5877 5880 5882
5825 5821 5818 5815 5811 5808 5805 5803 5801 5800 5799 5799 5800 5800 5801 5803 5805 5807 5810 5813 5816 5820 5823 5827 5830 5833 5836 5840 5843 5847 5850 5853 5856 5858 5861 5863 5866 5869 5871 5874 5876 5878 5881
5823 5820 5816 5813 5809 5806 5803 5800 5798 5797 5796 5796 5797 5797 5798 5800 5801 5803 5806 5809 5812 5816 5819 5823 5826 5829 5833 5836 5840 5843 5847 5850 5853 5855 5858 5861 5864 5867 5869 5871 5874 5876 5878
5822 5818 5815 5811 5808 5804 5801 5798 5796 5795 5794 5793 5793 5794 5795 5796 5798 5800 5802 5805 5808 5812 5815 5819 5822 5826 5829 5833 5836 5840 5843 5846 5849 5852 5855 5858 5861 5864 5866 5869 5871 5873 5876
5821 5817 5813 5810 5806 5803 5800 5797 5795 5793 5792 5792 5792 5792 5793 5794 5795 5797 5799 5802 5805 5808 5811 5815 5818 5822 5825 5829 5832 5836 5839 5843 5846 5849 5852 5854 5857 5860 5863 5865 5868 5870 5872
5820 5816 5812 5808 5805 5802 5799 5796 5793 5792 5791 5790 5790 5791 5791 5792 5793 5794 5796 5798 5801 5804 5807 5810 5814 5818 5821 5825 5828 5832 5835 5839 5842 5845 5848 5851 5854 5856 5859 5862 5864 5866 5868
5819 5815 5811 5807 5804 5801 5798 5795 5793 5791 5790 5790 5789 5789 5790 5790 5791 5792 5794 5795 5798 5801 5803 5807 5810 5814 5817 5821 5824 5828 5831 5835 5838 5841 5844 5847 5850 5852 5855 5858 5860 5862 5864
5818 5814 5810 5807 5804 5801 5798 5795 5793 5791 5790 5789 5788 5788 5788 5788 5788 5790 5791 5793 5795 5797 5800 5803 5806 5810 5813 5817 5820 5824 5827 5831 5834 5837 5840 5842 5845 5848 5850 5853 5855 5857 5860
5817 5813 5810 5807 5803 5800 5798 5795 5793 5791 5789 5788 5787 5786 5786 5786 5787 5787 5789 5790 5792 5795 5797 5800 5803 5806 5810 5813 5816 5819 5823 5826 5829 5832 5835 5838 5840 5843 5846 5848 5850 5852 5855
5816 5813 5810 5806 5803 5800 5797 5795 5793 5790 5789 5787 5786 5785 5785 5784 5785 5785 5786 5788 5790 5792 5795 5797 5800 5803 5806 5809 5812 5815 5818 5821 5824 5827 5830 5833 5836 5838 5841 5843 5845 5847 5849
5815 5812 5809 5806 5803 5800 5797 5795 5792 5790 5788 5787 5785 5784 5783 5783 5783 5783 5784 5786 5787 5790 5792 5794 5796 5799 5802 5805 5807 5810 5813 5816 5819 5822 5825 5828 5830 5833 5835 5837 5840 5842 5844
5814 5811 5809 5806 5803 5800 5797 5794 5792 5790 5788 5786 5784 5783 5782 5781 5782 5782 5783 5784 5785 5787 5789 5791 5793 5795 5798 5801 5803 5806 5808 5811 5814 5817 5820 5822 5824 5827 5829 5831 5833 5836 5837
5813 5810 5808 5805 5802 5800 5797 5794 5791 5789 5787 5785 5783 5782 5781 5780 5780 5781 5781 5782 5783 5785 5786 5788 5790 5792 5794 5797 5799 5801 5804 5806 5809 5812 5814 5816 5819 5821 5823 5825 5827 5829 5831
5811 5808 5806 5804 5801 5799 5796 5793 5791 5788 5786 5784 5783 5781 5780 5779 5779 5779 5779 5780 5781 5782 5783 5785 5786 5788 5791 5793 5795 5797 5799 5802 5804 5806 5808 5810 5812 5815 5816 5819 5821 5822 5824
5809 5806 5804 5802 5800 5797 5795 5792 5790 5788 5786 5784 5782 5780 5779 5778 5778 5778 5778 5778 5779 5779 5781 5782 5784 5785 5787 5789 5791 5793 5795 5797 5799 5801 5803 5804 5806 5808 5810 5812 5814 5815 5817
5806 5804 5802 5800 5798 5796 5793 5791 5789 5787 5784 5783 5781 5779 5778 5777 5777 5776 5776 5776 5777 5777 5778 5779 5780 5782 5783 5785 5787 5788 5790 5792 5793 5795 5797 5799 5800 5801 5803 5804 5806 5808 5809
5802 5800 5799 5797 5795 5793 5791 5789 5787 5785 5783 5781 5779 5778 5777 5776 5775 5774 5774 5774 5774 5775 5775 5776 5777 5778 5779 5781 5782 5784 5785 5787 5789 5790 5791 5793 5794 5795 5796 5798 5799 5800 5802
5798 5797 5795 5793 5792 5790 5788 5786 5784 5783 5781 5779 5777 5776 5774 5773 5773 5772 5772 5771 5771 5772 5772 5773 5773 5774 5775 5777 5778 5779 5780 5782 5783 5784 5786 5787 5788 5789 5790 5791 5792 5793 5794
5794 5792 5790 5789 5787 5786 5785 5783 5781 5779 5778 5776 5774 5773 5772 5771 5770 5769 5769 5769 5768 5769 5769 5769 5770 5771 5771 5772 5773 5775 5775 5776 5777 5778 5779 5781 5781 5782 5783 5783 5784 5785 5786
5788 5787 5785 5784 5782 5781 5780 5778 5777 5775 5774 5773 5771 5770 5769 5768 5767 5766 5766 5765 5765 5765 5765 5765 5766 5766 5767 5768 5768 5769 5770 5771 5772 5772 5773 5774 5775 5776 5776 5777 5777 5777 5778
5782 5780 5779 5777 5776 5775 5774 5773 5771 5770 5769 5768 5767 5766 5765 5764 5763 5762 5762 5761 5761 5761 5761 5761 5762 5762 5762 5763 5763 5764 5765 5765 5766 5766 5767 5768 5768 5769 5769 5769 5769 5770 5770